Weather in Zelenyy Yar

Russia / Yamalo-Nenets Autonomous Okrug     66°19′20″N   67°20′23″E
temp.,
°C
wind,
m/s
gust,
m/s
humid.,
%
clouds,
%
prec.,
mm/h
press.,
hPa
HPBL,
m
27 february, sat
sat2723:00−26ssw2210066 0.0 102220
02:00−26ssw2210041 0.0 102120
05:00−26ssw2210042 0.0 102219
08:00−27ssw2310031 0.0 102219
11:00−24ssw339638 0.0 102280
14:00−21ssw23952 0.0 1022161
17:00−23s33981 0.0 102220
20:00−25ssw349961 0.0 102121
28 february, sun
sun2823:00−26ssw449869 0.0 102226
02:00−26ssw449882 0.0 102127
05:00−27ssw459868 0.0 102132
08:00−28ssw459943 0.0 102138
11:00−25ssw589561 0.0 1020232
14:00−23ssw579357 0.0 1020315
17:00−25ssw459564 0.0 102044
20:00−27ssw459484 0.0 101940
1 march, mon
mon123:00−28ssw459174 0.0 102043
02:00−28ssw459499 0.0 101942
05:00−28ssw559593 0.0 101856
08:00−28ssw579799 0.0 101892
11:00−25sw699699 0.0 1016293
14:00−22ssw6995100 0.0 1014364
17:00−23ssw5996100 0.1 1013164
20:00−24ssw699599 0.0 1010134
2 march, tue
tue223:00−23s6129598 0.0 1009223
02:00−21s61396100 0.0 1007291
05:00−20s81493100 0.0 1005383
08:00−19s81492100 0.0 1004434
11:00−17ssw81391100 0.3 1004525
14:00−15ssw81289100 0.1 1003579
17:00−14ssw71390100 0.2 1003590
20:00−14s61394100 0.3 1003540
3 march, wed
wed323:00−14s71294100 0.8 1003539
02:00−15s71195100 0.4 1002477
05:00−16s71195100 0.8 1002463
08:00−16s71095100 0.4 1002417
11:00−15s71094100 0.9 1002514
14:00−14s6993100 0.4 1002602
17:00−13s5995100 0.8 1002437
20:00−14s5995100 0.4 1002318